Cyclone, PA

6:27 AM EST on February 07, 2016 (GMT -0500)
Bradford Regional

Weather History for KBFD - August, 2013

Change the Weather History Date:

Sunday, August 4, 2013

  Actual Average Record
Temperature  
Mean Temperature 60 °F 65 °F  
Max Temperature 70 °F 77 °F 87 °F (1988)
Min Temperature 50 °F 53 °F 40 °F (1966)
Degree Days  
Heating Degree Days 5 0  
Month to date heating degree days 10 0  
Since 1 June heating degree days 166 209  
Since 1 July heating degree days 62 64  
Cooling Degree Days 0 2  
Month to date cooling degree days 0 8  
Year to date cooling degree days 241 132  
Since 1 June cooling degree days 198 122  
Growing Degree Days 10 (Base 50)    
Moisture  
Dew Point 50 °F    
Average Humidity 70    
Maximum Humidity 93    
Minimum Humidity 47    
Precipitation  
Precipitation 0.00 in 0.13 in 1.36 in (1960)
Month to date precipitation 0.04 0.55  
Year to date precipitation 18.30 26.39  
Sea Level Pressure  
Sea Level Pressure 30.04 in    
Wind  
Wind Speed 8 mph (WNW)    
Max Wind Speed 20 mph    
Max Gust Speed 24 mph    
Visibility 10 miles    
Events      
T = Trace of Precipitation, MM = Missing Value Source: NWS Daily Summary

Daily Weather History Graph

Daily Weather History Graph

Search for Another Location

Airport or City:

Trip Planner

Search our weather history database for the weather conditions in past years. The results will help you decide how hot, cold, wet, or windy it might be!

Date:

Astronomy

Aug. 04, 2013 Rise Set
Actual Time 6:11 AM EDT 8:28 PM EDT
Civil Twilight 5:40 AM EDT 8:59 PM EDT
Nautical Twilight 5:02 AM EDT 9:37 PM EDT
Astronomical Twilight 4:19 AM EDT 10:20 PM EDT
Moon 4:10 AM EDT (8/4) 6:50 PM EDT (8/4)
Length of Visible Light 15h 19m
Length of Day
14h 17m
Waning Crescent, 5% of the Moon is Illuminated
Aug 4
Waning Crescent
Aug 6
New
Aug 14
First Quarter
Aug 20
Full
Aug 28
Last Quarter

Hourly Weather History & Observations

Time (EDT) Temp. Dew Point Humidity Pressure Visibility Wind Dir Wind Speed Gust Speed Precip Events Conditions
12:53 AM 51.1 °F 48.0 °F 89% 29.99 in 10.0 mi SE 3.5 mph - N/A   Clear
1:53 AM 52.0 °F 48.9 °F 89% 29.99 in 10.0 mi Calm Calm - N/A   Clear
2:53 AM 50.0 °F 46.9 °F 89% 29.99 in 10.0 mi Calm Calm - N/A   Mostly Cloudy
3:53 AM 52.0 °F 48.0 °F 86% 29.99 in 10.0 mi WNW 3.5 mph - N/A   Partly Cloudy
4:06 AM 55.0 °F 51.1 °F 86% 30.01 in 10.0 mi WNW 4.6 mph - N/A   Mostly Cloudy
4:23 AM 55.9 °F 52.0 °F 87% 30.01 in 10.0 mi WNW 5.8 mph - N/A   Overcast
4:53 AM 55.0 °F 51.1 °F 86% 29.98 in 10.0 mi West 3.5 mph - N/A   Overcast
5:14 AM 52.0 °F 48.0 °F 86% 30.01 in 10.0 mi Calm Calm - N/A   Overcast
5:36 AM 53.1 °F 48.9 °F 86% 30.01 in 10.0 mi WSW 3.5 mph - N/A   Scattered Clouds
5:53 AM 54.0 °F 51.1 °F 90% 29.99 in 10.0 mi West 4.6 mph - N/A   Clear
6:24 AM 51.1 °F 48.0 °F 89% 30.03 in 10.0 mi Calm Calm - N/A   Mostly Cloudy
6:46 AM 54.0 °F 51.1 °F 90% 30.03 in 10.0 mi West 5.8 mph - N/A   Overcast
6:53 AM 54.0 °F 51.1 °F 90% 30.01 in 10.0 mi West 5.8 mph - N/A   Overcast
7:11 AM 54.0 °F 51.1 °F 90% 30.03 in 10.0 mi WNW 4.6 mph - N/A   Overcast
7:53 AM 55.0 °F 51.1 °F 86% 30.02 in 10.0 mi WNW 6.9 mph - N/A   Overcast
8:53 AM 57.0 °F 51.1 °F 81% 30.03 in 10.0 mi WNW 10.4 mph - N/A   Overcast
9:13 AM 57.0 °F 51.1 °F 81% 30.05 in 10.0 mi NW 10.4 mph - N/A   Overcast
9:34 AM 57.9 °F 51.1 °F 78% 30.05 in 10.0 mi WNW 8.1 mph - N/A   Overcast
9:53 AM 59.0 °F 51.1 °F 75% 30.04 in 10.0 mi NW 11.5 mph - N/A   Overcast
10:17 AM 60.1 °F 50.0 °F 69% 30.06 in 10.0 mi WNW 12.7 mph 18.4 mph N/A   Overcast
10:41 AM 60.1 °F 51.1 °F 72% 30.07 in 10.0 mi WNW 9.2 mph - N/A   Overcast
10:53 AM 60.1 °F 51.1 °F 72% 30.06 in 10.0 mi WNW 9.2 mph - N/A   Overcast
11:01 AM 62.1 °F 51.1 °F 67% 30.07 in 10.0 mi NW 10.4 mph - N/A   Overcast
11:53 AM 64.0 °F 50.0 °F 60% 30.06 in 10.0 mi NNW 9.2 mph - N/A   Mostly Cloudy
12:53 PM 64.9 °F 48.9 °F 56% 30.05 in 10.0 mi NW 12.7 mph - N/A   Mostly Cloudy
1:53 PM 66.9 °F 48.0 °F 51% 30.05 in 10.0 mi NW 13.8 mph 20.7 mph N/A   Overcast
2:53 PM 66.9 °F 48.0 °F 51% 30.06 in 10.0 mi NNW 12.7 mph 18.4 mph N/A   Scattered Clouds
3:53 PM 69.1 °F 48.9 °F 49% 30.04 in 10.0 mi WNW 13.8 mph - N/A   Mostly Cloudy
4:53 PM 69.1 °F 48.0 °F 47% 30.04 in 10.0 mi NNW 16.1 mph - N/A   Partly Cloudy
5:53 PM 69.1 °F 48.0 °F 47% 30.04 in 10.0 mi NNW 12.7 mph - N/A   Partly Cloudy
6:53 PM 66.0 °F 48.0 °F 52% 30.06 in 10.0 mi NW 13.8 mph 20.7 mph N/A   Partly Cloudy
7:53 PM 62.1 °F 48.9 °F 62% 30.07 in 10.0 mi NW 8.1 mph - N/A   Clear
8:53 PM 59.0 °F 50.0 °F 72% 30.08 in 10.0 mi WNW 5.8 mph - N/A   Clear
9:53 PM 54.0 °F 48.9 °F 83% 30.09 in 10.0 mi Calm Calm - N/A   Clear
10:53 PM 53.1 °F 48.9 °F 86% 30.09 in 10.0 mi Calm Calm - N/A   Clear
11:48 PM 53.6 °F 50.0 °F 88% 30.11 in 10.0 mi WNW 5.8 mph - N/A   Mostly Cloudy
11:53 PM 55.9 °F 51.1 °F 84% 30.09 in 10.0 mi WNW 5.8 mph - N/A   Mostly Cloudy